Location: Penzberg
(47.7615°N, 11.3159°E)
Time: 09:56:02
(UTC+02:00)

ISS - Pass Details

Date: 14 February 2018
Orbit: 402 x 406 km, 51.6° (Epoch: 18 June)

Event Time Altitude Azimuth Distance (km) Brightness Sun altitude
Rises 18:21:36 0° 283° (WNW) 2,319 1.4 -8.3°
Reaches altitude 10° 18:24:31 10° 254° (WSW) 1,455 0.7 -8.8°
Maximum altitude 18:26:06 13° 225° (SW) 1,285 -0.4 -9.0°
Drops below altitude 10° 18:27:41 10° 196° (SSW) 1,451 -0.7 -9.3°
Sets 18:30:36 0° 167° (SSE) 2,306 0.0 -9.8°
